Home   Weather   Lens   Past weeks

Flag for France Past Weather in Lens, Nord-Pas-de-Calais, France — Yesterday and Last 2 Weeks

45 °F


Feels Like: 40 °F
Forecast: 48 / 57 °F
Wind: 9 mph from Northeast

Location: Lille Airport

Current Time: Oct 23, 2016 at 8:08:26 PM

Latest Report: Oct 23, 2016 at 7:30 PM

Visibility: 3 mi

Pressure: 29.83 "Hg

Humidity: 93%

Dew Point: 43 °F

Location of LensLocation

Past Weather in Lens — Graph


Lens Temperature Yesterday

Maximum temperature yesterday: 59 °F (at 3:00 PM)
Minimum temperature yesterday: 41 °F (at 2:00 AM)
Average temperature yesterday: 48 °F

High & Low Weather Summary for the Past Weeks

High70 °F (Oct 16, 3:30 PM)100% (Oct 9, 7:30 AM)30.30 "Hg (Oct 9, 7:30 AM)
Low39 °F (Oct 9, 7:30 AM)44% (Oct 9, 3:30 PM)29.62 "Hg (Oct 14, 11:30 PM)
Average50 °F85%30.03 "Hg
* Reported Oct 8 7:00 PM — Oct 23 7:00 PM, Lens, Weather by CustomWeather, © 2016

Note: Actual official high and low records may vary slightly from our data, if they occured in-between our weather recording intervals... More about our weather records


Lens Weather History for the Previous 24 Hours

Scroll right to see more
Time TempWeatherWind HumidityBarometerVisibility
7:00 PM
Sun, Oct 23
45 °FLow clouds.9 mph93%29.83 "Hg4 mi
6:30 PM45 °FFog.10 mph93%29.83 "Hg3 mi
6:00 PM45 °FLow clouds.10 mph93%29.83 "Hg4 mi
5:30 PM45 °FLow clouds.12 mph93%29.83 "Hg4 mi
5:00 PM45 °FLow clouds.9 mph93%29.83 "Hg4 mi
4:30 PM45 °FLow clouds.9 mph93%29.86 "Hg4 mi
4:00 PM45 °FLow clouds.9 mph93%29.86 "Hg4 mi
3:30 PM45 °FFog.9 mph93%29.86 "Hg3 mi
3:00 PM45 °FFog.8 mph93%29.86 "Hg3 mi
2:30 PM43 °FFog.9 mph100%29.86 "Hg3 mi
2:00 PM43 °FFog.8 mph100%29.86 "Hg3 mi
1:30 PM43 °FFog.8 mph100%29.86 "Hg3 mi
1:00 PM43 °FFog.7 mph100%29.89 "Hg1 mi
12:30 PM41 °FFog.8 mph100%29.89 "Hg2 mi
12:00 PM41 °FFog.8 mph100%29.89 "Hg1 mi
11:30 AM41 °FFog.7 mph100%29.89 "Hg0 mi
11:00 AM41 °FFog.7 mph100%29.89 "Hg0 mi
10:30 AM41 °FFog.7 mph100%29.89 "Hg0 mi
10:00 AM41 °FFog.7 mph100%29.89 "Hg0 mi
9:30 AM41 °FFog.7 mph100%29.89 "Hg0 mi
9:00 AM43 °FFog.7 mph93%29.89 "Hg1 mi
8:30 AM43 °FFog.7 mph100%29.89 "Hg1 mi
8:00 AM43 °FFog.3 mph100%29.89 "Hg1 mi
7:30 AM43 °FFog.6 mph100%29.89 "Hg1 mi
7:00 AM43 °FFog.7 mph100%29.89 "Hg1 mi
6:30 AM45 °FFog.6 mph93%29.89 "Hg2 mi
6:00 AM45 °FFog.5 mph93%29.89 "Hg3 mi
5:30 AM45 °FFog.5 mph93%29.89 "Hg3 mi
5:00 AM45 °FFog.3 mph93%29.89 "Hg3 mi
4:30 AM45 °FFog.5 mph93%29.89 "Hg3 mi
4:00 AM45 °FFog.5 mph93%29.92 "Hg3 mi
3:30 AM45 °FFog.3 mph93%29.92 "Hg3 mi
3:00 AM45 °FLow clouds.5 mph93%29.92 "Hg4 mi
2:30 AM45 °FLow clouds.5 mph93%29.92 "Hg4 mi
2:00 AM45 °FLow clouds.5 mph93%29.92 "Hg4 mi
1:30 AM45 °FLow clouds.6 mph93%29.92 "Hg4 mi
1:00 AM45 °FLow clouds.6 mph93%29.95 "Hg4 mi
12:30 AM45 °FLow clouds.5 mph93%29.95 "Hg4 mi
12:00 AM45 °FFog.5 mph93%29.92 "Hg3 mi
11:30 PM
Sat, Oct 22
45 °FFog.6 mph93%29.92 "Hg3 mi
11:00 PM46 °FClear.5 mph93%29.95 "Hg4 mi
10:30 PM46 °FClear.7 mph93%29.95 "Hg4 mi
10:00 PM48 °FClear.7 mph94%29.92 "Hg4 mi
9:30 PM48 °FPassing clouds.6 mph94%29.95 "HgN/A
9:00 PM48 °FClear.3 mph94%29.95 "Hg10 mi
8:30 PM50 °FClear.5 mph88%29.95 "Hg10 mi
8:00 PM50 °FOvercast.3 mph94%29.95 "HgN/A
Weather by CustomWeather, © 2016

See weather overviewHow to use our weather pages